Location: York
(31.8935°S, 116.7682°E)
Time: 22:45:38
(UTC+08:00)

Envisat - Pass Details

Date: 15 May 2021
Orbit: 764 x 766 km, 98.1° (Epoch: 13 June)

Event Time Altitude Azimuth Distance (km) Brightness Sun altitude
Rises 18:37:50 0° 185° (S) 3,264 6.2 -15.8°
Reaches altitude 10° 18:40:37 10° 200° (SSW) 2,330 5.6 -16.3°
Maximum altitude 18:44:27 22° 249° (WSW) 1,653 5.4 -17.1°
Drops below altitude 10° 18:48:17 10° 297° (WNW) 2,309 6.6 -17.9°
Sets 18:51:02 0° 312° (NW) 3,227 7.2 -18.5°
